Weather in Kajaani

Finland     64°13′06″N   27°44′06″E
temp.,
°C
wind,
m/s
gust,
m/s
humid.,
%
clouds,
%
prec.,
mm/h
press.,
hPa
HPBL,
m
25 january, tue
tue2523:00−1wsw6148720 0.0 1004607
02:00−1w61286100 0.1 1005901
05:00−4wnw513835 0.0 1007451
08:00−7wnw512875 0.0 1010319
11:00−8wnw4109310 0.0 1012257
14:00−8w399421 0.0 1014242
17:00−9wsw389727 0.0 1014142
20:00−8wsw399526 0.0 1014205
26 january, wed
wed2623:00−9wsw3109523 0.0 1014186
02:00−11sw269788 0.0 101393
05:00−11ssw379562 0.0 1012138
08:00−8s3995100 0.0 1009194
11:00−7s4993100 0.0 1007231
14:00−4s41391100 0.1 1005499
17:00−4s61488100 0.0 1003623
20:00−4s51394100 0.3 1001644
27 january, thu
thu2723:00−3s51294100 1.1 999635
02:00−4s51092100 1.4 998426
05:00−4s4993100 0.1 996337
08:00−5sse4993100 0.4 995313
11:00−5sse3993100 0.2 995337
14:00−5sse269498 0.6 995271
17:00−7se1198100 0.2 99539
20:00−7se119772 0.5 99620
28 january, fri
fri2823:00−11e119980 0.1 99710
02:00−9ene119787 0.1 99917
05:00−10nnw119877 0.1 100014
08:00−11wnw119879 0.2 100226
11:00−9nw249581 0.1 1003132
14:00−8nw379578 0.4 1005249
17:00−13wnw269867 0.0 100894
20:00−15w269851 0.0 1009109
29 january, sat
sat2923:00−17wsw249964 0.0 101055
02:00−17wsw119954 0.0 101021
05:00−18ssw119959 0.0 100810
08:00−16s239614 0.0 100640
11:00−11sse3988100 0.0 1003169
14:00−7sse51476100 0.0 998399
17:00−7se61681100 0.0 993554
20:00−6sse71792100 0.8 988786